Year,Month,Day,Hour,Minute,Value (Times are PST for insolation in W/m^2)
2021,11,04,00,00,0.00
2021,11,04,00,01,0.00
2021,11,04,00,02,0.00
2021,11,04,00,03,0.00
2021,11,04,00,04,0.00
2021,11,04,00,05,0.00
2021,11,04,00,06,0.00
2021,11,04,00,07,0.00
2021,11,04,00,08,0.00
2021,11,04,00,09,0.00
2021,11,04,00,10,0.00
2021,11,04,00,11,0.00
2021,11,04,00,12,0.00
2021,11,04,00,13,0.00
2021,11,04,00,14,0.00
2021,11,04,00,15,0.00
2021,11,04,00,16,0.00
2021,11,04,00,17,0.00
2021,11,04,00,18,0.00
2021,11,04,00,19,0.00
2021,11,04,00,20,0.00
2021,11,04,00,21,0.00
2021,11,04,00,22,0.00
2021,11,04,00,23,0.00
2021,11,04,00,24,0.00
2021,11,04,00,25,0.00
2021,11,04,00,26,0.00
2021,11,04,00,27,0.00
2021,11,04,00,28,0.00
2021,11,04,00,29,0.00
2021,11,04,00,30,0.00
2021,11,04,00,31,0.00
2021,11,04,00,32,0.00
2021,11,04,00,33,0.00
2021,11,04,00,34,0.00
2021,11,04,00,35,0.00
2021,11,04,00,36,0.00
2021,11,04,00,37,0.00
2021,11,04,00,38,0.00
2021,11,04,00,39,0.00
2021,11,04,00,40,0.00
2021,11,04,00,41,0.00
2021,11,04,00,42,0.00
2021,11,04,00,43,0.00
2021,11,04,00,44,0.00
2021,11,04,00,45,0.00
2021,11,04,00,46,0.00
2021,11,04,00,47,0.00
2021,11,04,00,48,0.00
2021,11,04,00,49,0.00
2021,11,04,00,50,0.00
2021,11,04,00,51,0.00
2021,11,04,00,52,0.00
2021,11,04,00,53,0.00
2021,11,04,00,54,0.00
2021,11,04,00,55,0.00
2021,11,04,00,56,0.00
2021,11,04,00,57,0.00
2021,11,04,00,58,0.00
2021,11,04,00,59,0.00
2021,11,04,01,00,0.00
2021,11,04,01,01,0.00
2021,11,04,01,02,0.00
2021,11,04,01,03,0.00
2021,11,04,01,04,0.00
2021,11,04,01,05,0.00
2021,11,04,01,06,0.00
2021,11,04,01,07,0.00
2021,11,04,01,08,0.00
2021,11,04,01,09,0.00
2021,11,04,01,10,0.00
2021,11,04,01,11,0.00
2021,11,04,01,12,0.00
2021,11,04,01,13,0.00
2021,11,04,01,14,0.00
2021,11,04,01,15,0.00
2021,11,04,01,16,0.00
2021,11,04,01,17,0.00
2021,11,04,01,18,0.00
2021,11,04,01,19,0.00
2021,11,04,01,20,0.00
2021,11,04,01,21,0.00
2021,11,04,01,22,0.00
2021,11,04,01,23,0.00
2021,11,04,01,24,0.00
2021,11,04,01,25,0.00
2021,11,04,01,26,0.00
2021,11,04,01,27,0.00
2021,11,04,01,28,0.00
2021,11,04,01,29,0.00
2021,11,04,01,30,0.00
2021,11,04,01,31,0.00
2021,11,04,01,32,0.00
2021,11,04,01,33,0.00
2021,11,04,01,34,0.00
2021,11,04,01,35,0.00
2021,11,04,01,36,0.00
2021,11,04,01,37,0.00
2021,11,04,01,38,0.00
2021,11,04,01,39,0.00
2021,11,04,01,40,0.00
2021,11,04,01,41,0.00
2021,11,04,01,42,0.00
2021,11,04,01,43,0.00
2021,11,04,01,44,0.00
2021,11,04,01,45,0.00
2021,11,04,01,46,0.00
2021,11,04,01,47,0.00
2021,11,04,01,48,0.00
2021,11,04,01,49,0.00
2021,11,04,01,50,0.00
2021,11,04,01,51,0.00
2021,11,04,01,52,0.00
2021,11,04,01,53,0.00
2021,11,04,01,54,0.00
2021,11,04,01,55,0.00
2021,11,04,01,56,0.00
2021,11,04,01,57,0.00
2021,11,04,01,58,0.00
2021,11,04,01,59,0.00
2021,11,04,02,00,0.00
2021,11,04,02,01,0.00
2021,11,04,02,02,0.00
2021,11,04,02,03,0.00
2021,11,04,02,04,0.00
2021,11,04,02,05,0.00
2021,11,04,02,06,0.00
2021,11,04,02,07,0.00
2021,11,04,02,08,0.00
2021,11,04,02,09,0.00
2021,11,04,02,10,0.00
2021,11,04,02,11,0.00
2021,11,04,02,12,0.00
2021,11,04,02,13,0.00
2021,11,04,02,14,0.00
2021,11,04,02,15,0.00
2021,11,04,02,16,0.00
2021,11,04,02,17,0.00
2021,11,04,02,18,0.00
2021,11,04,02,19,0.00
2021,11,04,02,20,0.00
2021,11,04,02,21,0.00
2021,11,04,02,22,0.00
2021,11,04,02,23,0.00
2021,11,04,02,24,0.00
2021,11,04,02,25,0.00
2021,11,04,02,26,0.00
2021,11,04,02,27,0.00
2021,11,04,02,28,0.00
2021,11,04,02,29,0.00
2021,11,04,02,30,0.00
2021,11,04,02,31,0.00
2021,11,04,02,32,0.00
2021,11,04,02,33,0.00
2021,11,04,02,34,0.00
2021,11,04,02,35,0.00
2021,11,04,02,36,0.00
2021,11,04,02,37,0.00
2021,11,04,02,38,0.00
2021,11,04,02,39,0.00
2021,11,04,02,40,0.00
2021,11,04,02,41,0.00
2021,11,04,02,42,0.00
2021,11,04,02,43,0.00
2021,11,04,02,44,0.00
2021,11,04,02,45,0.00
2021,11,04,02,46,0.00
2021,11,04,02,47,0.00
2021,11,04,02,48,0.00
2021,11,04,02,49,0.00
2021,11,04,02,50,0.00
2021,11,04,02,51,0.00
2021,11,04,02,52,0.00
2021,11,04,02,53,0.00
2021,11,04,02,54,0.00
2021,11,04,02,55,0.00
2021,11,04,02,56,0.00
2021,11,04,02,57,0.00
2021,11,04,02,58,0.00
2021,11,04,02,59,0.00
2021,11,04,03,00,0.00
2021,11,04,03,01,0.00
2021,11,04,03,02,0.00
2021,11,04,03,03,0.00
2021,11,04,03,04,0.00
2021,11,04,03,05,0.00
2021,11,04,03,06,0.00
2021,11,04,03,07,0.00
2021,11,04,03,08,0.00
2021,11,04,03,09,0.00
2021,11,04,03,10,0.00
2021,11,04,03,11,0.00
2021,11,04,03,12,0.00
2021,11,04,03,13,0.00
2021,11,04,03,14,0.00
2021,11,04,03,15,0.00
2021,11,04,03,16,0.00
2021,11,04,03,17,0.00
2021,11,04,03,18,0.00
2021,11,04,03,19,0.00
2021,11,04,03,20,0.00
2021,11,04,03,21,0.00
2021,11,04,03,22,0.00
2021,11,04,03,23,0.00
2021,11,04,03,24,0.00
2021,11,04,03,25,0.00
2021,11,04,03,26,0.00
2021,11,04,03,27,0.00
2021,11,04,03,28,0.00
2021,11,04,03,29,0.00
2021,11,04,03,30,0.00
2021,11,04,03,31,0.00
2021,11,04,03,32,0.00
2021,11,04,03,33,0.00
2021,11,04,03,34,0.00
2021,11,04,03,35,0.00
2021,11,04,03,36,0.00
2021,11,04,03,37,0.00
2021,11,04,03,38,0.00
2021,11,04,03,39,0.00
2021,11,04,03,40,0.00
2021,11,04,03,41,0.00
2021,11,04,03,42,0.00
2021,11,04,03,43,0.00
2021,11,04,03,44,0.00
2021,11,04,03,45,0.00
2021,11,04,03,46,0.00
2021,11,04,03,47,0.00
2021,11,04,03,48,0.00
2021,11,04,03,49,0.00
2021,11,04,03,50,0.00
2021,11,04,03,51,0.00
2021,11,04,03,52,0.00
2021,11,04,03,53,0.00
2021,11,04,03,54,0.00
2021,11,04,03,55,0.00
2021,11,04,03,56,0.00
2021,11,04,03,57,0.00
2021,11,04,03,58,0.00
2021,11,04,03,59,0.00
2021,11,04,04,00,0.00
2021,11,04,04,01,0.00
2021,11,04,04,02,0.00
2021,11,04,04,03,0.00
2021,11,04,04,04,0.00
2021,11,04,04,05,0.00
2021,11,04,04,06,0.00
2021,11,04,04,07,0.00
2021,11,04,04,08,0.00
2021,11,04,04,09,0.00
2021,11,04,04,10,0.00
2021,11,04,04,11,0.00
2021,11,04,04,12,0.00
2021,11,04,04,13,0.00
2021,11,04,04,14,0.00
2021,11,04,04,15,0.00
2021,11,04,04,16,0.00
2021,11,04,04,17,0.00
2021,11,04,04,18,0.00
2021,11,04,04,19,0.00
2021,11,04,04,20,0.00
2021,11,04,04,21,0.00
2021,11,04,04,22,0.00
2021,11,04,04,23,0.00
2021,11,04,04,24,0.00
2021,11,04,04,25,0.00
2021,11,04,04,26,0.00
2021,11,04,04,27,0.00
2021,11,04,04,28,0.00
2021,11,04,04,29,0.00
2021,11,04,04,30,0.00
2021,11,04,04,31,0.00
2021,11,04,04,32,0.00
2021,11,04,04,33,0.00
2021,11,04,04,34,0.00
2021,11,04,04,35,0.00
2021,11,04,04,36,0.00
2021,11,04,04,37,0.00
2021,11,04,04,38,0.00
2021,11,04,04,39,0.00
2021,11,04,04,40,0.00
2021,11,04,04,41,0.00
2021,11,04,04,42,0.00
2021,11,04,04,43,0.00
2021,11,04,04,44,0.00
2021,11,04,04,45,0.00
2021,11,04,04,46,0.00
2021,11,04,04,47,0.00
2021,11,04,04,48,0.00
2021,11,04,04,49,0.00
2021,11,04,04,50,0.00
2021,11,04,04,51,0.00
2021,11,04,04,52,0.00
2021,11,04,04,53,0.00
2021,11,04,04,54,0.00
2021,11,04,04,55,0.00
2021,11,04,04,56,0.00
2021,11,04,04,57,0.00
2021,11,04,04,58,0.00
2021,11,04,04,59,0.00
2021,11,04,05,00,0.00
2021,11,04,05,01,0.00
2021,11,04,05,02,0.00
2021,11,04,05,03,0.00
2021,11,04,05,04,0.00
2021,11,04,05,05,0.00
2021,11,04,05,06,0.00
2021,11,04,05,07,0.00
2021,11,04,05,08,0.00
2021,11,04,05,09,0.00
2021,11,04,05,10,0.00
2021,11,04,05,11,0.00
2021,11,04,05,12,0.00
2021,11,04,05,13,0.00
2021,11,04,05,14,0.00
2021,11,04,05,15,0.00
2021,11,04,05,16,0.00
2021,11,04,05,17,0.00
2021,11,04,05,18,0.00
2021,11,04,05,19,0.00
2021,11,04,05,20,0.00
2021,11,04,05,21,0.00
2021,11,04,05,22,0.00
2021,11,04,05,23,0.00
2021,11,04,05,24,0.00
2021,11,04,05,25,0.00
2021,11,04,05,26,0.00
2021,11,04,05,27,0.00
2021,11,04,05,28,0.00
2021,11,04,05,29,0.00
2021,11,04,05,30,0.00
2021,11,04,05,31,0.00
2021,11,04,05,32,0.00
2021,11,04,05,33,0.00
2021,11,04,05,34,0.00
2021,11,04,05,35,0.00
2021,11,04,05,36,0.00
2021,11,04,05,37,0.00
2021,11,04,05,38,0.00
2021,11,04,05,39,0.00
2021,11,04,05,40,0.00
2021,11,04,05,41,0.00
2021,11,04,05,42,0.00
2021,11,04,05,43,0.00
2021,11,04,05,44,0.00
2021,11,04,05,45,0.00
2021,11,04,05,46,0.00
2021,11,04,05,47,0.00
2021,11,04,05,48,0.00
2021,11,04,05,49,0.00
2021,11,04,05,50,0.00
2021,11,04,05,51,0.00
2021,11,04,05,52,0.00
2021,11,04,05,53,0.00
2021,11,04,05,54,0.00
2021,11,04,05,55,0.00
2021,11,04,05,56,0.00
2021,11,04,05,57,0.00
2021,11,04,05,58,0.00
2021,11,04,05,59,0.00
2021,11,04,06,00,0.00
2021,11,04,06,01,0.00
2021,11,04,06,02,0.00
2021,11,04,06,03,0.00
2021,11,04,06,04,0.00
2021,11,04,06,05,0.00
2021,11,04,06,06,0.00
2021,11,04,06,07,0.00
2021,11,04,06,08,0.00
2021,11,04,06,09,0.00
2021,11,04,06,10,0.00
2021,11,04,06,11,0.00
2021,11,04,06,12,0.00
2021,11,04,06,13,0.00
2021,11,04,06,14,0.00
2021,11,04,06,15,0.00
2021,11,04,06,16,0.00
2021,11,04,06,17,0.00
2021,11,04,06,18,0.00
2021,11,04,06,19,0.00
2021,11,04,06,20,0.00
2021,11,04,06,21,0.00
2021,11,04,06,22,0.00
2021,11,04,06,23,0.00
2021,11,04,06,24,0.00
2021,11,04,06,25,0.00
2021,11,04,06,26,0.00
2021,11,04,06,27,0.00
2021,11,04,06,28,0.00
2021,11,04,06,29,0.00
2021,11,04,06,30,0.00
2021,11,04,06,31,0.00
2021,11,04,06,32,0.00
2021,11,04,06,33,0.00
2021,11,04,06,34,0.00
2021,11,04,06,35,0.00
2021,11,04,06,36,0.00
2021,11,04,06,37,0.00
2021,11,04,06,38,0.00
2021,11,04,06,39,0.00
2021,11,04,06,40,0.00
2021,11,04,06,41,0.00
2021,11,04,06,42,0.00
2021,11,04,06,43,0.00
2021,11,04,06,44,0.00
2021,11,04,06,45,0.00
2021,11,04,06,46,0.00
2021,11,04,06,47,0.00
2021,11,04,06,48,0.00
2021,11,04,06,49,0.00
2021,11,04,06,50,0.00
2021,11,04,06,51,0.00
2021,11,04,06,52,0.00
2021,11,04,06,53,0.00
2021,11,04,06,54,0.00
2021,11,04,06,55,0.00
2021,11,04,06,56,0.00
2021,11,04,06,57,0.00
2021,11,04,06,58,0.00
2021,11,04,06,59,0.00
2021,11,04,07,00,0.00
2021,11,04,07,01,0.00
2021,11,04,07,02,0.00
2021,11,04,07,03,0.00
2021,11,04,07,04,0.00
2021,11,04,07,05,0.00
2021,11,04,07,06,0.00
2021,11,04,07,07,0.00
2021,11,04,07,08,0.00
2021,11,04,07,09,0.00
2021,11,04,07,10,0.00
2021,11,04,07,11,0.00
2021,11,04,07,12,0.00
2021,11,04,07,13,0.00
2021,11,04,07,14,0.00
2021,11,04,07,15,0.00
2021,11,04,07,16,0.00
2021,11,04,07,17,0.00
2021,11,04,07,18,0.00
2021,11,04,07,19,0.00
2021,11,04,07,20,0.00
2021,11,04,07,21,0.00
2021,11,04,07,22,0.00
2021,11,04,07,23,0.00
2021,11,04,07,24,0.00
2021,11,04,07,25,0.00
2021,11,04,07,26,0.00
2021,11,04,07,27,0.00
2021,11,04,07,28,0.00
2021,11,04,07,29,0.00
2021,11,04,07,30,0.00
2021,11,04,07,31,0.00
2021,11,04,07,32,0.00
2021,11,04,07,33,0.00
2021,11,04,07,34,0.00
2021,11,04,07,35,0.00
2021,11,04,07,36,0.00
2021,11,04,07,37,0.00
2021,11,04,07,38,0.00
2021,11,04,07,39,0.00
2021,11,04,07,40,0.00
2021,11,04,07,41,0.00
2021,11,04,07,42,0.00
2021,11,04,07,43,0.00
2021,11,04,07,44,0.00
2021,11,04,07,45,0.00
2021,11,04,07,46,0.00
2021,11,04,07,47,0.00
2021,11,04,07,48,0.00
2021,11,04,07,49,0.00
2021,11,04,07,50,0.00
2021,11,04,07,51,0.00
2021,11,04,07,52,0.00
2021,11,04,07,53,0.00
2021,11,04,07,54,0.00
2021,11,04,07,55,0.00
2021,11,04,07,56,0.00
2021,11,04,07,57,0.00
2021,11,04,07,58,0.00
2021,11,04,07,59,0.00
2021,11,04,08,00,0.00
2021,11,04,08,01,0.00
2021,11,04,08,02,0.00
2021,11,04,08,03,0.00
2021,11,04,08,04,0.00
2021,11,04,08,05,0.00
2021,11,04,08,06,0.00
2021,11,04,08,07,0.00
2021,11,04,08,08,0.00
2021,11,04,08,09,0.00
2021,11,04,08,10,0.00
2021,11,04,08,11,0.00
2021,11,04,08,12,0.00
2021,11,04,08,13,0.00
2021,11,04,08,14,0.00
2021,11,04,08,15,0.00
2021,11,04,08,16,0.00
2021,11,04,08,17,0.00
2021,11,04,08,18,0.00
2021,11,04,08,19,2.80
2021,11,04,08,20,5.00
2021,11,04,08,21,5.00
2021,11,04,08,22,5.00
2021,11,04,08,23,5.00
2021,11,04,08,24,5.30
2021,11,04,08,25,7.00
2021,11,04,08,26,7.70
2021,11,04,08,27,9.00
2021,11,04,08,28,9.00
2021,11,04,08,29,9.00
2021,11,04,08,30,9.00
2021,11,04,08,31,10.80
2021,11,04,08,32,11.00
2021,11,04,08,33,11.00
2021,11,04,08,34,11.00
2021,11,04,08,35,11.00
2021,11,04,08,36,10.00
2021,11,04,08,37,9.00
2021,11,04,08,38,9.00
2021,11,04,08,39,9.00
2021,11,04,08,40,9.10
2021,11,04,08,41,11.00
2021,11,04,08,42,11.00
2021,11,04,08,43,11.40
2021,11,04,08,44,12.90
2021,11,04,08,45,14.00
2021,11,04,08,46,14.00
2021,11,04,08,47,14.00
2021,11,04,08,48,14.00
2021,11,04,08,49,12.30
2021,11,04,08,50,14.40
2021,11,04,08,51,15.40
2021,11,04,08,52,14.70
2021,11,04,08,53,16.00
2021,11,04,08,54,17.10
2021,11,04,08,55,16.60
2021,11,04,08,56,16.00
2021,11,04,08,57,17.90
2021,11,04,08,58,19.30
2021,11,04,08,59,21.00
2021,11,04,09,00,21.00
2021,11,04,09,01,21.00
2021,11,04,09,02,21.00
2021,11,04,09,03,21.00
2021,11,04,09,04,21.00
2021,11,04,09,05,21.00
2021,11,04,09,06,18.20
2021,11,04,09,07,19.00
2021,11,04,09,08,19.00
2021,11,04,09,09,19.00
2021,11,04,09,10,18.50
2021,11,04,09,11,18.00
2021,11,04,09,12,18.00
2021,11,04,09,13,18.80
2021,11,04,09,14,22.40
2021,11,04,09,15,25.30
2021,11,04,09,16,29.00
2021,11,04,09,17,32.00
2021,11,04,09,18,31.10
2021,11,04,09,19,28.90
2021,11,04,09,20,25.00
2021,11,04,09,21,21.60
2021,11,04,09,22,21.00
2021,11,04,09,23,19.20
2021,11,04,09,24,20.50
2021,11,04,09,25,18.00
2021,11,04,09,26,17.20
2021,11,04,09,27,17.00
2021,11,04,09,28,16.80
2021,11,04,09,29,16.00
2021,11,04,09,30,17.50
2021,11,04,09,31,18.90
2021,11,04,09,32,19.00
2021,11,04,09,33,18.10
2021,11,04,09,34,19.00
2021,11,04,09,35,19.00
2021,11,04,09,36,19.00
2021,11,04,09,37,19.00
2021,11,04,09,38,20.40
2021,11,04,09,39,21.00
2021,11,04,09,40,24.60
2021,11,04,09,41,25.50
2021,11,04,09,42,30.40
2021,11,04,09,43,32.30
2021,11,04,09,44,33.00
2021,11,04,09,45,35.10
2021,11,04,09,46,35.70
2021,11,04,09,47,36.50
2021,11,04,09,48,39.50
2021,11,04,09,49,39.10
2021,11,04,09,50,39.80
2021,11,04,09,51,43.40
2021,11,04,09,52,43.60
2021,11,04,09,53,46.50
2021,11,04,09,54,47.00
2021,11,04,09,55,51.20
2021,11,04,09,56,53.80
2021,11,04,09,57,53.10
2021,11,04,09,58,50.80
2021,11,04,09,59,48.40
2021,11,04,10,00,44.80
2021,11,04,10,01,40.80
2021,11,04,10,02,36.90
2021,11,04,10,03,33.80
2021,11,04,10,04,32.30
2021,11,04,10,05,32.00
2021,11,04,10,06,30.20
2021,11,04,10,07,30.00
2021,11,04,10,08,30.50
2021,11,04,10,09,32.40
2021,11,04,10,10,33.00
2021,11,04,10,11,34.20
2021,11,04,10,12,36.30
2021,11,04,10,13,39.30
2021,11,04,10,14,39.10
2021,11,04,10,15,39.00
2021,11,04,10,16,38.60
2021,11,04,10,17,37.70
2021,11,04,10,18,39.00
2021,11,04,10,19,39.50
2021,11,04,10,20,41.20
2021,11,04,10,21,42.00
2021,11,04,10,22,45.40
2021,11,04,10,23,44.20
2021,11,04,10,24,44.20
2021,11,04,10,25,46.00
2021,11,04,10,26,46.30
2021,11,04,10,27,47.00
2021,11,04,10,28,48.10
2021,11,04,10,29,49.00
2021,11,04,10,30,50.50
2021,11,04,10,31,49.40
2021,11,04,10,32,47.00
2021,11,04,10,33,43.70
2021,11,04,10,34,42.60
2021,11,04,10,35,44.00
2021,11,04,10,36,44.00
2021,11,04,10,37,44.00
2021,11,04,10,38,45.30
2021,11,04,10,39,48.40
2021,11,04,10,40,55.30
2021,11,04,10,41,70.00
2021,11,04,10,42,75.70
2021,11,04,10,43,102.80
2021,11,04,10,44,112.60
2021,11,04,10,45,119.70
2021,11,04,10,46,123.40
2021,11,04,10,47,123.50
2021,11,04,10,48,123.00
2021,11,04,10,49,118.50
2021,11,04,10,50,112.40
2021,11,04,10,51,109.50
2021,11,04,10,52,114.40
2021,11,04,10,53,123.30
2021,11,04,10,54,133.30
2021,11,04,10,55,145.80
2021,11,04,10,56,155.80
2021,11,04,10,57,155.40
2021,11,04,10,58,145.40
2021,11,04,10,59,132.90
2021,11,04,11,00,129.20
2021,11,04,11,01,136.80
2021,11,04,11,02,152.00
2021,11,04,11,03,168.40
2021,11,04,11,04,176.80
2021,11,04,11,05,178.80
2021,11,04,11,06,182.60
2021,11,04,11,07,181.30
2021,11,04,11,08,172.10
2021,11,04,11,09,173.30
2021,11,04,11,10,164.80
2021,11,04,11,11,158.80
2021,11,04,11,12,151.00
2021,11,04,11,13,143.50
2021,11,04,11,14,141.10
2021,11,04,11,15,138.90
2021,11,04,11,16,133.40
2021,11,04,11,17,129.20
2021,11,04,11,18,125.50
2021,11,04,11,19,124.00
2021,11,04,11,20,125.00
2021,11,04,11,21,127.10
2021,11,04,11,22,131.20
2021,11,04,11,23,132.00
2021,11,04,11,24,127.70
2021,11,04,11,25,123.60
2021,11,04,11,26,118.70
2021,11,04,11,27,123.60
2021,11,04,11,28,129.00
2021,11,04,11,29,133.20
2021,11,04,11,30,157.10
2021,11,04,11,31,183.60
2021,11,04,11,32,195.40
2021,11,04,11,33,179.90
2021,11,04,11,34,161.50
2021,11,04,11,35,164.20
2021,11,04,11,36,170.60
2021,11,04,11,37,169.00
2021,11,04,11,38,169.00
2021,11,04,11,39,171.40
2021,11,04,11,40,171.10
2021,11,04,11,41,177.90
2021,11,04,11,42,183.40
2021,11,04,11,43,185.00
2021,11,04,11,44,186.20
2021,11,04,11,45,194.60
2021,11,04,11,46,218.80
2021,11,04,11,47,244.70
2021,11,04,11,48,255.80
2021,11,04,11,49,240.40
2021,11,04,11,50,232.30
2021,11,04,11,51,236.50
2021,11,04,11,52,249.90
2021,11,04,11,53,255.20
2021,11,04,11,54,249.30
2021,11,04,11,55,244.10
2021,11,04,11,56,241.50
2021,11,04,11,57,239.30
2021,11,04,11,58,243.10
2021,11,04,11,59,246.40
2021,11,04,12,00,265.10
2021,11,04,12,01,284.80
2021,11,04,12,02,296.00
2021,11,04,12,03,295.30
2021,11,04,12,04,290.10
2021,11,04,12,05,287.20
2021,11,04,12,06,291.50
2021,11,04,12,07,285.00
2021,11,04,12,08,291.20
2021,11,04,12,09,312.40
2021,11,04,12,10,292.00
2021,11,04,12,11,257.50
2021,11,04,12,12,231.40
2021,11,04,12,13,216.60
2021,11,04,12,14,207.40
2021,11,04,12,15,192.00
2021,11,04,12,16,176.40
2021,11,04,12,17,165.80
2021,11,04,12,18,162.00
2021,11,04,12,19,162.00
2021,11,04,12,20,162.00
2021,11,04,12,21,162.00
2021,11,04,12,22,162.00
2021,11,04,12,23,156.00
2021,11,04,12,24,154.60
2021,11,04,12,25,152.00
2021,11,04,12,26,158.70
2021,11,04,12,27,168.60
2021,11,04,12,28,184.50
2021,11,04,12,29,205.80
2021,11,04,12,30,229.80
2021,11,04,12,31,254.00
2021,11,04,12,32,306.30
2021,11,04,12,33,391.20
2021,11,04,12,34,343.80
2021,11,04,12,35,317.90
2021,11,04,12,36,280.30
2021,11,04,12,37,261.60
2021,11,04,12,38,271.20
2021,11,04,12,39,283.30
2021,11,04,12,40,287.90
2021,11,04,12,41,287.40
2021,11,04,12,42,294.20
2021,11,04,12,43,304.10
2021,11,04,12,44,357.80
2021,11,04,12,45,445.70
2021,11,04,12,46,492.00
2021,11,04,12,47,597.70
2021,11,04,12,48,670.40
2021,11,04,12,49,698.70
2021,11,04,12,50,673.10
2021,11,04,12,51,422.00
2021,11,04,12,52,422.00
2021,11,04,12,53,512.80
2021,11,04,12,54,649.00
2021,11,04,12,55,652.00
2021,11,04,12,56,654.00
2021,11,04,12,57,545.20
2021,11,04,12,58,522.50
2021,11,04,12,59,459.20
2021,11,04,13,00,487.30
2021,11,04,13,01,501.00
2021,11,04,13,02,420.50
2021,11,04,13,03,332.00
2021,11,04,13,04,400.40
2021,11,04,13,05,437.30
2021,11,04,13,06,444.40
2021,11,04,13,07,464.00
2021,11,04,13,08,474.40
2021,11,04,13,09,533.00
2021,11,04,13,10,439.20
2021,11,04,13,11,258.20
2021,11,04,13,12,242.60
2021,11,04,13,13,229.60
2021,11,04,13,14,221.40
2021,11,04,13,15,213.90
2021,11,04,13,16,216.80
2021,11,04,13,17,218.90
2021,11,04,13,18,209.20
2021,11,04,13,19,206.00
2021,11,04,13,20,205.00
2021,11,04,13,21,196.90
2021,11,04,13,22,182.50
2021,11,04,13,23,174.50
2021,11,04,13,24,172.20
2021,11,04,13,25,174.60
2021,11,04,13,26,179.20
2021,11,04,13,27,184.90
2021,11,04,13,28,183.50
2021,11,04,13,29,169.40
2021,11,04,13,30,154.60
2021,11,04,13,31,145.80
2021,11,04,13,32,135.90
2021,11,04,13,33,123.80
2021,11,04,13,34,111.20
2021,11,04,13,35,104.00
2021,11,04,13,36,102.20
2021,11,04,13,37,100.00
2021,11,04,13,38,93.50
2021,11,04,13,39,82.30
2021,11,04,13,40,71.30
2021,11,04,13,41,62.70
2021,11,04,13,42,49.20
2021,11,04,13,43,36.80
2021,11,04,13,44,28.20
2021,11,04,13,45,24.00
2021,11,04,13,46,24.20
2021,11,04,13,47,31.50
2021,11,04,13,48,45.50
2021,11,04,13,49,53.30
2021,11,04,13,50,53.20
2021,11,04,13,51,56.60
2021,11,04,13,52,67.80
2021,11,04,13,53,70.00
2021,11,04,13,54,76.20
2021,11,04,13,55,84.80
2021,11,04,13,56,90.90
2021,11,04,13,57,118.60
2021,11,04,13,58,134.50
2021,11,04,13,59,172.40
2021,11,04,14,00,187.90
2021,11,04,14,01,214.00
2021,11,04,14,02,214.00
2021,11,04,14,03,208.50
2021,11,04,14,04,202.70
2021,11,04,14,05,213.10
2021,11,04,14,06,214.30
2021,11,04,14,07,193.20
2021,11,04,14,08,195.80
2021,11,04,14,09,205.00
2021,11,04,14,10,212.60
2021,11,04,14,11,193.80
2021,11,04,14,12,190.90
2021,11,04,14,13,201.40
2021,11,04,14,14,203.00
2021,11,04,14,15,233.30
2021,11,04,14,16,263.70
2021,11,04,14,17,208.60
2021,11,04,14,18,182.00
2021,11,04,14,19,196.80
2021,11,04,14,20,219.00
2021,11,04,14,21,232.00
2021,11,04,14,22,237.50
2021,11,04,14,23,225.40
2021,11,04,14,24,211.40
2021,11,04,14,25,206.10
2021,11,04,14,26,207.00
2021,11,04,14,27,205.20
2021,11,04,14,28,204.40
2021,11,04,14,29,207.00
2021,11,04,14,30,205.00
2021,11,04,14,31,204.00
2021,11,04,14,32,200.60
2021,11,04,14,33,199.50
2021,11,04,14,34,194.60
2021,11,04,14,35,193.00
2021,11,04,14,36,193.00
2021,11,04,14,37,189.50
2021,11,04,14,38,184.20
2021,11,04,14,39,188.00
2021,11,04,14,40,201.80
2021,11,04,14,41,210.30
2021,11,04,14,42,236.70
2021,11,04,14,43,253.80
2021,11,04,14,44,277.30
2021,11,04,14,45,245.90
2021,11,04,14,46,225.20
2021,11,04,14,47,211.00
2021,11,04,14,48,211.00
2021,11,04,14,49,191.40
2021,11,04,14,50,185.60
2021,11,04,14,51,177.70
2021,11,04,14,52,176.00
2021,11,04,14,53,174.20
2021,11,04,14,54,169.20
2021,11,04,14,55,167.00
2021,11,04,14,56,170.20
2021,11,04,14,57,168.20
2021,11,04,14,58,167.00
2021,11,04,14,59,159.50
2021,11,04,15,00,155.20
2021,11,04,15,01,156.00
2021,11,04,15,02,156.00
2021,11,04,15,03,160.50
2021,11,04,15,04,170.70
2021,11,04,15,05,170.50
2021,11,04,15,06,157.80
2021,11,04,15,07,154.90
2021,11,04,15,08,151.40
2021,11,04,15,09,144.40
2021,11,04,15,10,151.00
2021,11,04,15,11,152.80
2021,11,04,15,12,153.80
2021,11,04,15,13,143.90
2021,11,04,15,14,135.20
2021,11,04,15,15,134.90
2021,11,04,15,16,131.90
2021,11,04,15,17,128.40
2021,11,04,15,18,131.20
2021,11,04,15,19,135.20
2021,11,04,15,20,139.40
2021,11,04,15,21,151.10
2021,11,04,15,22,162.90
2021,11,04,15,23,145.60
2021,11,04,15,24,139.30
2021,11,04,15,25,141.60
2021,11,04,15,26,138.00
2021,11,04,15,27,135.00
2021,11,04,15,28,135.00
2021,11,04,15,29,134.40
2021,11,04,15,30,134.60
2021,11,04,15,31,132.90
2021,11,04,15,32,130.30
2021,11,04,15,33,127.90
2021,11,04,15,34,127.00
2021,11,04,15,35,127.00
2021,11,04,15,36,127.00
2021,11,04,15,37,128.40
2021,11,04,15,38,131.20
2021,11,04,15,39,133.90
2021,11,04,15,40,138.00
2021,11,04,15,41,143.30
2021,11,04,15,42,148.80
2021,11,04,15,43,158.60
2021,11,04,15,44,191.50
2021,11,04,15,45,220.80
2021,11,04,15,46,178.10
2021,11,04,15,47,192.00
2021,11,04,15,48,198.30
2021,11,04,15,49,178.00
2021,11,04,15,50,207.20
2021,11,04,15,51,200.60
2021,11,04,15,52,185.50
2021,11,04,15,53,167.60
2021,11,04,15,54,180.20
2021,11,04,15,55,185.40
2021,11,04,15,56,183.70
2021,11,04,15,57,180.00
2021,11,04,15,58,179.00
2021,11,04,15,59,183.10
2021,11,04,16,00,188.80
2021,11,04,16,01,201.40
2021,11,04,16,02,208.60
2021,11,04,16,03,200.50
2021,11,04,16,04,230.80
2021,11,04,16,05,225.30
2021,11,04,16,06,201.70
2021,11,04,16,07,249.40
2021,11,04,16,08,246.50
2021,11,04,16,09,216.20
2021,11,04,16,10,201.20
2021,11,04,16,11,216.60
2021,11,04,16,12,190.50
2021,11,04,16,13,151.80
2021,11,04,16,14,155.80
2021,11,04,16,15,165.60
2021,11,04,16,16,164.90
2021,11,04,16,17,158.20
2021,11,04,16,18,144.90
2021,11,04,16,19,135.20
2021,11,04,16,20,132.00
2021,11,04,16,21,123.60
2021,11,04,16,22,111.70
2021,11,04,16,23,109.00
2021,11,04,16,24,112.60
2021,11,04,16,25,115.30
2021,11,04,16,26,124.80
2021,11,04,16,27,132.00
2021,11,04,16,28,131.10
2021,11,04,16,29,131.00
2021,11,04,16,30,128.80
2021,11,04,16,31,124.00
2021,11,04,16,32,117.30
2021,11,04,16,33,116.00
2021,11,04,16,34,116.60
2021,11,04,16,35,121.60
2021,11,04,16,36,130.30
2021,11,04,16,37,137.50
2021,11,04,16,38,146.50
2021,11,04,16,39,154.30
2021,11,04,16,40,155.20
2021,11,04,16,41,153.30
2021,11,04,16,42,147.60
2021,11,04,16,43,142.20
2021,11,04,16,44,132.90
2021,11,04,16,45,126.10
2021,11,04,16,46,121.40
2021,11,04,16,47,115.80
2021,11,04,16,48,106.70
2021,11,04,16,49,98.90
2021,11,04,16,50,97.10
2021,11,04,16,51,92.70
2021,11,04,16,52,89.60
2021,11,04,16,53,88.90
2021,11,04,16,54,91.90
2021,11,04,16,55,95.20
2021,11,04,16,56,97.00
2021,11,04,16,57,97.00
2021,11,04,16,58,95.30
2021,11,04,16,59,95.00
2021,11,04,17,00,95.00
2021,11,04,17,01,95.00
2021,11,04,17,02,95.00
2021,11,04,17,03,95.00
2021,11,04,17,04,92.10
2021,11,04,17,05,87.40
2021,11,04,17,06,80.50
2021,11,04,17,07,76.40
2021,11,04,17,08,73.90
2021,11,04,17,09,71.30
2021,11,04,17,10,68.30
2021,11,04,17,11,66.10
2021,11,04,17,12,63.90
2021,11,04,17,13,62.40
2021,11,04,17,14,60.60
2021,11,04,17,15,58.30
2021,11,04,17,16,54.30
2021,11,04,17,17,53.20
2021,11,04,17,18,54.00
2021,11,04,17,19,54.00
2021,11,04,17,20,54.00
2021,11,04,17,21,52.30
2021,11,04,17,22,51.00
2021,11,04,17,23,48.00
2021,11,04,17,24,44.40
2021,11,04,17,25,41.90
2021,11,04,17,26,39.80